Terminal Aerodrome Forecast
Issued by NWS Louisville, KY

Home | Current Version | Previous Version | Text Only | Print | Product List | Glossary On
Versions: 1 2 3 4 5 6 7 8 9 10 11 12 13 14 15 16 17 18 19 20 21
194
FTUS43 KLMK 260725 AAA
TAFLEX
TAF AMD
KLEX 260725Z 2607/2706 VRB03KT 3SM BR SCT003
      TEMPO 2607/2611 1SM BR BKN003
     FM261300 26006KT P6SM SCT050 PROB30 2620/2624 VRB10G20KT 4SM
      TSRA BR BKN035CB
     FM270000 VRB03KT P6SM SCT250=

USA.gov is the U.S. government's official web portal to all federal, state and local government web resources and services.